Find Starlink 2001

NORAD ID: 47596 Int'l Des: 2021-009 Owner: SPXS Country: US Constellation: starlink operational
LEOCIRCULAR

Live-Position

3D-Globus wird geladen...

Über Starlink 2001

Beschreibung wird geladen...

Nächste Überflüge

Passes for default location (London). Set your location on the main map for personalized predictions.

Höhenverlauf

Loading altitude history...

Zweizeiliger Elementsatz

1 47596U 21009BA 26133.10875401 .00072742 00000-0 77781-3 0 9999
2 47596 53.0417 69.0106 0006153 60.5217 299.6409 15.63234926290833
Epoch: 13. Mai 2026 • Age: 16 hours

Aktueller Status

Höhe 385.0 km
Geschwindigkeit 7.68 km/s
Subsatellitenpunkt -14.79°S, 103.59°E
Startdatum 4. Feb. 2021
Alter 5.2 years
Typ internet

Technische Details

Klassifizierung Payload
Masse 260.00 kg
Trockenmasse 248.00 kg
Gesamtmasse 260.00 kg
Länge 0.20 m
Durchmesser 2.80 m
Spannweite 9.00 m
Form Box + pan
Hersteller SPXS
Bus-Typ Starlink
Phasenstatus In Orbit
Besitzer/Staat SPXS/US

Most Searched